Logan, UT

8:37 PM MST on December 11, 2019 (GMT -0700)
Logan-Cache

Weather History for KLGU - October, 2019

Change the Weather History Date:

Monday, October 14, 2019

  Actual Average Record
Temperature  
Mean Temperature 45 °F -  
Max Temperature 64 °F 61 °F 82 °F (1958)
Min Temperature 26 °F 32 °F 15 °F (1966)
Degree Days  
Heating Degree Days 20    
Moisture  
Dew Point 23 °F    
Average Humidity 50    
Maximum Humidity 79    
Minimum Humidity 16    
Precipitation  
Precipitation 0.00 in - - ()
Sea Level Pressure  
Sea Level Pressure 30.01 in    
Wind  
Wind Speed 1 mph ()    
Max Wind Speed 5 mph    
Max Gust Speed -    
Visibility 9.9 miles    
Events      
Averages and records for this station are not official NWS values.
T = Trace of Precipitation, MM = Missing Value Source: Averaged Metar Reports

Daily Weather History Graph

Daily Weather History Graph

Search for Another Location

Airport or City:

Astronomy

Oct. 14, 2019 Rise Set
Actual Time 7:38 AM MDT 6:47 PM MDT
Civil Twilight 7:10 AM MDT 7:15 PM MDT
Nautical Twilight 6:38 AM MDT 7:47 PM MDT
Astronomical Twilight 6:05 AM MDT 8:20 PM MDT
Moon 7:39 PM MDT (10/14) 8:13 AM MDT (10/14)
Length of Visible Light 12h 05m
Length of Day
11h 09m
Full, 99% of the Moon is Illuminated
Oct 14
Full
Oct 21
Last Quarter
Oct 27
New
Nov 4
First Quarter
Nov 12
Full

Hourly Weather History & Observations

Time (MDT) Temp. Windchill Dew Point Humidity Pressure Visibility Wind Dir Wind Speed Gust Speed Precip Events Conditions
12:51 AM 39.0 °F - 24.1 °F 55% 29.92 in 10.0 mi Calm Calm - N/A   Clear
1:51 AM 32.0 °F 27.5 °F 23.0 °F 69% 29.92 in - SW 4.6 mph - N/A   Clear
2:51 AM 30.0 °F - 23.0 °F 75% 29.92 in 10.0 mi Calm Calm - N/A   Clear
3:51 AM 30.0 °F - 21.0 °F 69% 29.92 in 10.0 mi Calm Calm - N/A   Clear
4:51 AM 30.9 °F 27.5 °F 23.0 °F 72% 29.91 in 10.0 mi SSE 3.5 mph - N/A   Clear
5:51 AM 26.1 °F - 19.9 °F 78% 29.95 in 10.0 mi Calm Calm - N/A   Clear
6:51 AM 28.9 °F 25.2 °F 23.0 °F 78% 29.98 in 10.0 mi West 3.5 mph - N/A   Clear
8:51 AM 30.9 °F - 25.0 °F 79% 30.03 in 8.0 mi Calm Calm - N/A   Clear
9:51 AM 36.0 °F - 28.9 °F 76% 30.06 in - Calm Calm - N/A   Clear
10:51 AM 44.1 °F - 25.0 °F 47% 30.06 in - Calm Calm - N/A   Clear
11:51 AM 50.0 °F - 25.0 °F 38% 30.04 in 10.0 mi Calm Calm - N/A   Clear
12:51 PM 57.0 °F - 24.1 °F 28% 30.00 in 10.0 mi Calm Calm - N/A   Clear
1:51 PM 61.0 °F - 19.0 °F 20% 30.00 in 10.0 mi Calm Calm - N/A   Clear
2:51 PM 64.0 °F - 16.0 °F 16% 29.99 in 10.0 mi NE 3.5 mph - N/A   Clear
4:51 PM 64.0 °F - 16.0 °F 16% 29.99 in 10.0 mi SSW 3.5 mph - N/A   Clear
5:51 PM 64.0 °F - 19.0 °F 18% 30.01 in 10.0 mi SSW 3.5 mph - N/A   Clear
6:51 PM 60.1 °F - 19.0 °F 20% 30.01 in 10.0 mi Calm Calm - N/A   Clear
7:51 PM 48.0 °F - 24.1 °F 39% 30.07 in 10.0 mi Calm Calm - N/A   Clear
8:51 PM 46.9 °F - 23.0 °F 39% 30.09 in 10.0 mi Calm Calm - N/A   Clear
9:51 PM 39.9 °F - 27.0 °F 60% 30.11 in 10.0 mi Calm Calm - N/A   Clear
10:51 PM 41.0 °F - 25.0 °F 53% 30.11 in 10.0 mi Calm Calm - N/A   Clear
11:51 PM 37.9 °F 35.5 °F 24.1 °F 57% 30.14 in 10.0 mi East 3.5 mph - N/A   Clear